Weather History for Al Ain, United Arab Emirates

Change the Weather History Date:

Wednesday, October 30, 2013

  Actual Average Record
Temperature  
Mean Temperature 80 °F -  
Max Temperature 93 °F 86 °F 96 °F (1999)
Min Temperature 68 °F 65 °F 68 °F (2013)
Cooling Degree Days 16    
Growing Degree Days 30 (Base 50)    
Moisture  
Dew Point 60 °F    
Average Humidity 52    
Maximum Humidity 88    
Minimum Humidity 23    
Precipitation  
Precipitation 0.00 in - - ()
Sea Level Pressure  
Sea Level Pressure 29.97 in    
Wind  
Wind Speed 6 mph ()    
Max Wind Speed 12 mph    
Max Gust Speed -    
Visibility 5.3 miles    
Events      
Averages and records for this station are not official NWS values.
T = Trace of Precipitation, MM = Missing Value Source: Averaged Metar Reports

Daily Weather History Graph

Daily Weather History Graph

Search for Another Location

Airport:

Trip Planner

Search our weather history database for the weather conditions in past years. The results will help you decide how hot, cold, wet, or windy it might be!

Date:

Astronomy

Oct. 30, 2013 Rise Set
Actual Time 6:22 AM GST 5:39 PM GST
Civil Twilight 5:59 AM GST 6:02 PM GST
Nautical Twilight 5:32 AM GST 6:29 PM GST
Astronomical Twilight 5:06 AM GST 6:56 PM GST
Moon 2:15 AM GST (10/30) 2:47 PM GST (10/30)
Length of Visible Light 12h 03m
Length of Day
11h 16m
Waning Crescent, 20% of the Moon is Illuminated
Oct 30
Waning Crescent
Nov 3
New
Nov 10
First Quarter
Nov 17
Full
Nov 25
Last Quarter

Hourly Weather History & Observations

Time (GST) Temp. Heat Index Dew Point Humidity Pressure Visibility Wind Dir Wind Speed Gust Speed Precip Events Conditions
12:00 AM 75.2 °F - 68.0 °F 78% 29.95 in - NNE 5.8 mph - N/A   Clear
1:00 AM 75.2 °F - 69.8 °F 83% 29.95 in - ENE 4.6 mph - N/A   Clear
2:00 AM 73.4 °F - 69.8 °F 88% 29.92 in 5.0 mi ENE 3.5 mph - N/A   Unknown
3:00 AM 73.4 °F - 68.0 °F 83% 29.92 in 5.0 mi NE 5.8 mph - N/A   Unknown
4:00 AM 73.4 °F - 68.0 °F 83% 29.92 in 5.0 mi NE 4.6 mph - N/A   Unknown
5:00 AM 71.6 °F - 66.2 °F 83% 29.95 in 5.0 mi NE 3.5 mph - N/A   Unknown
6:00 AM 71.6 °F - 64.4 °F 78% 29.95 in 5.0 mi NE 3.5 mph - N/A   Unknown
7:00 AM 69 °F - 62 °F 74% 29.97 in 5 mi NNE 6.9 mph - -   Haze
7:00 AM 68.0 °F - 62.6 °F 83% 29.98 in 5.0 mi NNE 6.9 mph - N/A   Unknown
8:00 AM 73.4 °F - 64.4 °F 73% 30.01 in 5.6 mi NNE 6.9 mph - N/A   Unknown
9:00 AM 78.8 °F - 68.0 °F 69% 30.04 in - North 6.9 mph - N/A   Clear
10:00 AM 84 °F - 57 °F 29% 30.00 in 6 mi North 6.9 mph - -  
10:00 AM 84.2 °F 83.5 °F 57.2 °F 40% 30.04 in - North 6.9 mph - N/A   Clear
11:00 AM 87.8 °F - 51.8 °F 29% 30.04 in - North 4.6 mph - N/A   Clear
12:00 PM 89.6 °F 87.3 °F 53.6 °F 29% 30.01 in - NW 6.9 mph - N/A   Clear
1:00 PM 91.4 °F 89.4 °F 55.4 °F 29% 29.98 in - NW 8.1 mph - N/A   Clear
2:00 PM 91.4 °F 89.4 °F 55.4 °F 29% 29.95 in - NNW 5.8 mph - N/A   Clear
3:00 PM 93.2 °F 91.3 °F 55.4 °F 28% 29.92 in - WNW 11.5 mph - N/A   Clear
4:00 PM 93.2 °F 91.3 °F 55.4 °F 28% 29.92 in - NW 10.4 mph - N/A   Clear
5:00 PM 91.4 °F 89.9 °F 57.2 °F 31% 29.95 in - NW 10.4 mph - N/A   Clear
6:00 PM 89.6 °F 87.3 °F 53.6 °F 29% 29.95 in - NW 10.4 mph - N/A   Clear
7:00 PM 86 °F - 53 °F 23% 29.93 in 6 mi NNW 11.5 mph - -  
7:00 PM 86.0 °F 84.2 °F 53.6 °F 33% 29.98 in - NNW 11.5 mph - N/A   Clear
8:00 PM 82.4 °F 82.0 °F 57.2 °F 42% 30.01 in - NNW 11.5 mph - N/A   Clear
9:00 PM 80.6 °F 81.1 °F 59.0 °F 48% 30.01 in - North 9.2 mph - N/A   Clear
10:00 PM 79 °F - 58 °F 38% 29.98 in 6 mi North 8.1 mph - -  
10:00 PM 78.8 °F - 57.2 °F 47% 30.01 in - North 8.1 mph - N/A   Clear
11:00 PM 78.8 °F - 59.0 °F 51% 30.01 in - North 8.1 mph - N/A   Clear